Temp
31 31 31 32 32 33 33 32 32 33 32 32 32 32 32 32 32 32 31 31 30 30 29 28 27 26 25 24 24 23 23 22 21 22 23 23 23 23 22 22 21 20 19 18
30 30 32 32 31 31 32 32 32 31 31 31 32 32 33 32 31 32 32 32 31 30 29 28 27 26 25 25 24 24 23 22 20 21 21 20 20 21 21 20 20 19 18 18
31 32 31 30 30 31 31 31 32 32 31 31 32 31 32 32 32 32 32 32 31 30 29 29 28 26 26 25 24 23 21 20 19 18 20 20 20 20 21 21 20 19 17 16
31 31 30 30 31 31 30 31 31 30 30 31 31 31 32 32 30 31 31 31 31 30 29 30 28 27 26 25 22 20 19 18 17 16 18 16 17 18 19 17 18 16 15 14
31 30 30 30 31 31 31 31 30 30 30 30 30 30 32 32 30 31 31 31 31 31 30 29 29 28 25 22 20 18 17 16 15 15 15 15 16 16 16 15 14 14 13 13
30 30 31 31 30 31 29 29 29 29 30 28 30 30 32 32 31 32 31 30 30 30 30 29 28 25 23 22 20 18 17 16 15 15 14 13 13 12 12 12 11 13 12 11
30 30 30 30 30 29 30 29 28 28 29 29 29 28 31 30 30 29 30 29 29 29 30 29 27 26 23 21 20 19 17 17 15 14 13 12 11 10 11 10 11 9 8 8
29 28 30 30 31 30 30 30 27 24 28 30 28 28 30 29 29 29 30 30 29 29 30 28 26 24 22 20 18 18 17 16 14 13 12 11 10 10 9 9 7 6 7 7
29 29 30 30 31 31 29 28 30 28 27 27 30 29 30 29 29 29 29 29 29 29 27 25 23 22 20 19 17 16 15 14 13 12 11 10 9 8 7 7 6 7 6 6
30 28 30 28 29 29 29 30 27 28 24 26 29 28 29 29 29 29 29 29 29 27 25 23 22 20 19 18 16 15 13 13 12 11 10 9 8 8 7 6 6 6 5 5
30 28 29 28 29 30 28 28 29 28 28 25 25 29 30 29 30 29 30 30 29 26 25 23 21 19 18 17 16 14 13 11 11 10 8 8 7 7 6 6 6 5 5 4
30 28 28 29 30 29 31 30 29 28 26 26 26 27 30 29 29 29 29 29 28 26 23 22 21 19 17 15 14 13 11 10 9 8 8 7 6 6 6 6 5 5 4 4
27 27 27 28 28 27 28 29 29 29 27 27 24 26 29 28 27 27 28 27 25 23 22 22 20 18 16 14 12 11 10 8 7 6 6 6 6 5 5 5 4 4 4 4
24 27 27 26 29 30 28 28 29 28 27 27 27 27 29 27 27 25 25 24 24 23 21 20 19 16 14 12 11 9 8 6 6 5 5 5 5 4 5 3 4 4 4 4
22 24 27 28 29 29 29 29 29 28 28 27 28 28 28 27 26 25 24 23 22 21 20 18 17 15 13 10 9 8 6 5 4 4 4 4 4 4 3 4 5 4 4 4
21 21 22 23 27 28 28 29 29 28 29 28 28 27 28 25 25 23 23 23 21 19 18 16 15 13 10 8 7 6 5 4 3 3 2 2 3 3 4 4 5 4 4 4
22 23 21 20 22 25 26 28 27 28 28 28 27 28 25 24 24 23 22 22 20 18 16 15 13 11 8 6 5 5 4 3 3 2 2 3 2 4 5 4 5 4 4 4
22 21 23 23 24 22 27 27 28 26 27 27 27 25 25 24 22 22 22 20 18 16 15 13 11 9 7 6 5 4 3 2 2 2 3 3 4 6 5 4 4 4 4 4
21 21 22 23 24 26 24 24 25 25 26 26 26 25 24 21 20 19 19 18 16 14 12 10 8 7 6 5 4 3 2 2 3 4 4 5 6 7 6 6 5 5 5 4
21 21 21 23 19 21 26 26 25 26 25 25 25 25 23 23 23 20 17 16 14 12 10 9 8 7 6 4 3 3 3 3 5 6 6 7 7 7 7 8 8 7 7 6
19 20 21 22 21 23 23 24 25 22 24 25 25 24 24 23 22 18 16 14 12 11 10 9 8 6 4 4 4 5 6 6 6 7 8 8 8 8 7 8 8 8 8 7
20 19 17 18 17 17 21 22 22 21 23 24 24 24 23 19 18 17 15 14 13 12 10 10 8 6 6 6 8 8 7 7 7 8 8 8 8 8 8 8 8 8 9 9
18 20 18 18 17 20 19 19 19 19 21 23 24 23 21 20 18 17 15 14 12 11 10 10 8 8 8 7 8 8 8 7 7 8 8 8 8 8 8 8 8 8 8 9
21 20 19 19 21 20 20 18 19 19 17 23 23 22 21 19 18 17 15 14 13 11 10 9 9 9 9 8 8 8 8 7 8 8 8 9 9 8 8 8 8 6 5 7
21 20 20 20 21 20 19 19 19 21 21 22 22 22 21 19 18 17 15 14 12 11 10 10 10 9 9 9 8 8 8 8 8 8 9 9 10 9 9 8 6 6 3 2
22 21 21 20 19 20 18 20 20 21 22 22 21 20 20 19 18 16 15 13 12 11 10 10 9 9 9 9 9 8 8 8 8 9 9 9 10 10 9 9 8 5 5 4
Height
779 784 786 776 774 768 773 781 786 780 780 788 787 786 783 783 787 789 790 792 795 797 802 806 811 814 816 817 818 819 820 820 820 819 818 816 813 811 811 809 807 806 803 801
787 787 768 770 776 781 780 785 786 785 783 788 781 783 774 780 783 781 783 785 789 794 799 801 807 811 813 815 816 817 818 819 818 817 816 815 813 810 808 806 804 802 799 796
781 772 774 780 783 785 781 784 781 787 786 783 783 787 781 778 778 778 778 779 783 788 793 797 803 807 810 812 814 815 816 816 816 815 814 813 811 807 804 801 799 797 794 791
776 770 780 781 783 778 789 777 782 788 792 797 782 797 775 775 782 779 778 780 781 784 790 792 798 803 807 810 814 815 815 815 815 814 814 813 811 807 804 801 796 792 789 784
776 777 781 784 779 776 782 779 785 788 791 791 788 800 773 770 782 776 775 775 774 778 785 790 794 798 805 812 813 814 814 815 815 815 814 813 810 807 802 797 792 788 783 778
772 769 772 771 776 776 782 789 790 790 788 810 786 789 773 766 773 767 769 774 775 776 780 787 793 803 809 811 812 814 815 816 816 815 813 811 809 804 799 794 789 782 777 774
776 775 769 771 782 781 782 793 806 808 804 803 790 798 772 771 772 774 774 775 775 777 779 785 798 801 807 810 813 814 816 816 815 813 811 808 804 800 795 790 783 780 775 770
784 793 773 766 771 778 782 783 808 834 806 787 793 799 776 772 772 771 769 771 774 777 778 787 796 802 807 812 815 815 815 814 813 811 808 806 802 797 792 787 783 778 772 767
783 780 762 765 764 769 781 795 777 797 799 806 775 777 770 769 772 771 771 772 775 779 786 796 803 807 811 814 816 816 815 814 812 809 806 802 798 794 789 785 780 774 769 763
766 786 767 773 768 772 774 767 798 795 827 815 780 790 784 777 773 771 772 774 775 782 792 800 805 810 813 816 816 816 815 813 810 807 804 799 795 791 787 782 776 770 764 757
761 776 777 773 774 768 781 781 779 779 788 814 813 785 764 768 767 768 767 766 772 786 794 801 806 812 814 816 816 816 814 812 809 806 802 798 793 789 784 778 771 765 758 752
759 768 778 770 758 758 755 763 768 787 797 797 797 796 759 763 764 766 765 767 774 785 797 803 807 812 814 816 816 815 814 812 809 806 801 796 792 786 780 774 768 761 754 747
764 771 781 772 772 769 770 765 763 767 775 787 809 795 762 766 768 769 770 774 785 793 799 804 809 813 815 816 817 816 815 812 809 805 800 794 789 783 777 771 764 758 750 743
772 765 769 781 759 746 768 764 760 769 779 780 777 778 764 768 770 777 779 784 789 795 801 807 811 815 817 818 818 816 814 812 808 803 798 793 787 782 776 769 763 756 749 741
775 787 766 755 747 746 750 755 756 765 763 774 767 768 764 764 771 777 783 787 793 799 805 811 814 817 819 819 818 816 814 811 807 802 797 793 787 782 775 768 762 755 748 740
781 789 785 784 762 754 754 749 747 755 753 761 764 771 757 772 775 782 786 790 797 804 809 814 818 819 821 820 819 817 814 810 807 802 797 792 787 780 775 768 761 755 747 739
780 778 794 801 786 771 764 748 752 749 751 756 768 758 765 775 778 783 788 793 801 809 814 817 819 822 823 822 820 817 814 811 807 802 797 792 786 781 775 769 763 756 748 740
779 784 777 780 771 789 746 740 742 756 751 749 756 763 763 772 784 788 790 798 806 812 816 820 822 823 824 823 821 819 815 811 807 802 797 792 787 781 775 770 764 757 750 743
775 779 777 775 767 750 758 753 756 759 755 749 754 761 767 783 790 799 802 807 812 817 820 823 825 826 825 824 822 819 816 812 807 802 799 794 788 782 777 771 765 759 753 747
772 773 780 769 792 780 739 735 743 745 761 750 752 758 771 776 777 793 806 812 817 820 823 825 827 827 827 826 823 821 817 812 808 804 799 794 789 784 779 773 768 763 757 752
777 777 773 769 774 762 752 746 746 772 764 748 751 758 767 773 778 796 808 815 818 821 825 826 827 830 829 827 825 822 818 814 810 805 800 796 791 786 782 777 771 766 760 754
772 778 790 783 791 789 761 760 766 766 754 750 754 760 769 784 792 800 809 814 819 822 825 826 828 831 830 828 825 821 818 815 810 805 801 797 793 788 784 779 774 769 763 757
779 767 779 781 779 762 767 768 768 764 759 756 757 765 776 784 793 802 809 815 820 823 825 827 829 830 830 829 827 823 820 816 811 806 803 799 795 791 787 782 778 773 768 762
760 762 768 772 758 762 762 767 767 763 772 759 763 770 776 785 794 803 810 815 819 823 826 828 829 829 830 829 827 825 821 817 812 808 804 799 795 792 789 786 782 780 776 770
757 761 762 760 755 760 763 763 767 764 764 764 769 772 779 787 796 803 810 815 820 825 827 828 830 830 830 830 828 826 822 818 814 810 805 801 796 793 789 786 787 785 784 779
750 755 757 758 758 756 764 759 762 761 763 767 770 778 784 790 797 804 812 817 822 825 828 830 831 831 831 830 829 827 824 820 816 811 807 804 798 795 792 789 787 786 784 783
Wind_Speed
6 9 12 14 15 11 6 10 12 8 5 15 18 18 12 17 19 18 18 18 18 19 18 18 17 15 15 14 14 13 11 10 10 11 15 18 19 19 19 19 20 21 21 23
7 11 6 3 7 10 11 12 11 6 6 11 14 17 14 16 21 21 20 19 19 17 17 20 17 16 17 14 13 12 12 11 11 13 15 16 17 20 21 22 23 22 23 25
11 6 6 10 10 11 11 11 9 10 7 10 7 14 15 15 17 18 18 17 17 17 18 17 18 17 15 14 12 11 9 8 7 8 10 12 15 18 21 24 26 29 28 30
9 7 8 11 13 12 11 6 5 7 10 12 9 13 19 16 17 18 18 17 17 17 18 16 17 16 12 8 3 1 2 4 6 9 7 10 14 19 22 27 30 31 32 31
4 9 10 12 12 10 2 5 5 5 9 7 10 8 11 13 15 17 17 17 18 19 18 17 13 15 3 2 4 7 8 8 7 8 10 14 17 22 26 28 31 31 31 28
9 1 5 8 5 6 10 7 6 6 8 10 13 10 9 10 9 6 5 10 11 12 14 13 5 4 5 6 7 7 7 7 9 12 14 16 20 24 27 29 30 29 28 29
11 13 6 8 9 7 11 8 6 7 7 5 4 6 12 2 1 2 5 7 8 9 11 10 9 8 5 6 5 5 8 9 13 16 18 20 22 24 26 27 27 29 27 26
9 13 15 12 14 10 15 8 2 4 3 3 6 6 4 2 2 4 5 7 8 8 8 5 4 6 7 6 6 7 10 13 16 19 21 21 22 23 24 23 25 26 26 26
6 7 5 5 7 11 8 10 4 6 5 8 5 4 9 7 6 7 10 10 10 8 6 7 9 8 6 5 7 10 13 15 18 20 22 22 22 22 22 24 24 25 26 28
4 4 6 7 7 5 11 10 6 7 4 8 4 4 7 7 7 9 11 11 11 9 9 9 9 8 5 5 7 11 14 17 20 21 21 22 22 21 22 23 25 26 28 29
14 8 6 7 11 12 7 11 7 4 3 4 5 4 4 6 3 6 10 11 12 10 10 9 9 7 6 7 10 13 16 19 20 21 21 21 21 23 23 23 25 27 28 29
16 8 13 16 3 6 11 12 14 8 8 6 7 8 3 5 5 5 6 2 7 9 10 9 8 6 7 10 12 15 17 18 19 20 21 21 21 22 23 25 26 26 30 29
5 9 12 14 6 6 11 14 13 11 6 9 6 5 4 3 3 1 2 7 9 10 9 8 7 7 9 11 13 15 17 18 20 20 20 21 21 22 24 25 25 28 29 29
5 11 12 12 15 11 18 17 17 16 11 11 11 14 9 7 6 4 7 10 12 10 7 6 6 8 10 12 14 16 18 19 20 20 20 21 22 23 24 25 24 25 28 28
5 9 13 17 17 14 13 17 18 18 17 14 11 9 8 1 3 7 9 11 11 9 8 7 7 9 11 14 16 17 18 19 20 20 20 21 21 21 24 23 23 26 26 26
1 9 16 20 22 17 17 17 16 18 15 9 14 10 7 5 8 10 10 10 9 8 7 7 7 11 13 16 17 18 19 20 19 19 19 19 19 23 21 22 22 23 23 26
2 7 8 12 16 26 17 15 16 15 10 12 12 7 10 9 10 10 10 9 9 7 7 7 9 12 13 16 17 18 18 17 17 17 18 17 21 18 20 21 20 22 26 28
3 4 6 11 12 18 3 4 13 13 10 10 6 3 5 11 10 8 8 10 9 7 7 8 10 12 14 15 16 16 16 15 15 15 14 16 18 19 21 20 21 25 27 27
6 4 5 8 13 14 5 5 7 12 13 11 9 7 14 16 16 11 10 10 10 9 9 10 11 11 13 14 14 13 12 15 13 12 15 18 18 17 19 22 25 25 28 28
7 6 6 8 6 16 17 11 7 6 8 12 10 15 18 17 10 9 11 10 10 10 10 10 9 11 12 13 10 10 11 10 11 16 18 19 15 15 20 22 20 21 21 26
9 8 12 10 13 10 6 5 8 10 2 11 12 15 15 8 8 17 13 11 11 10 9 8 10 11 10 9 9 10 11 14 16 17 16 15 16 17 19 20 20 21 21 24
5 4 3 5 6 10 6 5 8 5 2 11 12 14 13 16 17 15 13 11 10 9 8 8 10 11 8 8 9 13 15 16 16 15 14 15 16 18 18 20 22 22 22 21
5 5 4 7 5 3 3 5 4 6 7 8 14 14 16 17 16 14 12 10 9 9 8 9 11 9 8 8 10 13 16 16 15 14 15 15 16 16 18 19 22 24 24 22
7 6 5 5 8 9 7 2 8 4 5 8 15 17 17 17 15 13 11 10 9 9 10 11 9 9 7 7 9 12 15 16 14 14 15 15 15 15 14 17 20 21 24 23
2 7 5 9 8 6 8 7 11 9 13 15 16 16 17 16 14 13 11 11 10 11 12 10 8 7 6 6 9 12 14 15 15 15 15 17 16 16 16 13 13 19 20 20
8 8 7 6 7 3 2 6 7 12 15 17 18 17 15 16 14 15 11 12 12 12 12 9 7 6 5 6 8 11 12 13 15 16 16 17 17 17 16 15 9 11 16 22
Wind_Direction
195 227 211 202 216 263 244 225 204 196 159 210 227 221 188 196 205 209 206 210 214 216 217 216 212 221 228 233 241 251 265 278 287 288 290 291 288 292 289 290 294 294 294 296
205 230 186 164 197 213 209 210 202 145 179 220 223 231 215 193 212 215 215 215 217 217 216 214 214 221 231 241 253 264 276 282 285 287 289 290 291 289 288 290 292 292 295 295
257 83 145 193 183 199 206 220 212 244 169 221 251 229 203 219 217 221 229 230 226 223 218 216 216 224 238 252 269 281 287 295 309 316 304 301 295 288 291 295 297 297 296 295
247 127 201 204 205 219 203 215 232 213 222 245 210 260 193 203 215 220 226 232 235 226 229 224 219 232 244 267 265 297 49 43 23 12 340 332 312 306 304 300 298 298 296 295
170 204 204 208 214 207 48 167 220 235 246 291 213 252 269 186 217 221 225 235 235 229 222 225 221 234 125 182 107 91 80 60 33 8 349 329 316 308 305 302 301 300 298 296
260 130 234 239 108 219 136 171 196 230 246 239 240 237 254 200 223 220 221 239 242 232 219 214 187 149 155 114 91 77 55 28 360 347 336 327 317 313 310 307 305 304 306 304
206 208 173 183 165 162 203 201 231 221 203 245 103 239 270 103 207 277 196 196 183 186 188 182 180 167 133 98 75 50 16 352 344 337 331 326 319 315 310 312 311 314 309 306
220 195 199 186 224 204 208 237 210 269 208 131 173 242 122 143 190 210 203 176 170 184 183 159 164 143 113 86 48 12 355 343 338 333 327 322 318 316 314 315 313 308 306 305
215 224 127 200 203 235 171 228 304 248 259 269 252 172 222 193 196 194 193 191 191 188 137 154 130 123 105 67 26 4 349 338 334 329 325 323 322 321 317 314 312 309 307 305
216 247 206 157 170 186 240 137 189 215 254 264 178 266 280 170 185 189 200 200 194 149 161 143 130 117 91 43 12 354 345 338 331 329 327 324 322 320 317 314 312 311 309 307
237 244 169 174 213 203 175 211 222 287 281 257 296 297 112 198 225 208 215 202 181 178 154 143 129 110 62 20 3 350 343 336 332 330 327 325 324 322 319 317 318 317 314 314
222 233 243 222 103 312 247 232 202 220 203 217 275 272 150 214 256 244 267 160 137 152 140 139 118 77 33 10 356 349 341 335 333 331 328 327 324 325 325 325 322 322 320 320
177 217 231 225 200 203 230 224 233 239 267 246 203 265 138 164 216 198 232 131 137 140 133 113 81 48 18 2 352 345 341 339 336 334 330 330 330 332 331 328 326 325 326 324
336 268 232 240 248 237 205 232 219 218 242 239 245 256 258 190 223 142 130 139 141 131 111 82 56 30 9 357 351 347 346 343 338 337 336 336 336 334 333 329 329 330 330 327
101 289 285 264 257 270 241 231 222 223 236 251 268 292 277 33 223 151 143 135 132 119 90 61 35 14 6 359 355 353 349 347 345 342 341 340 337 336 337 335 337 339 341 341
217 232 284 296 304 251 242 246 240 224 236 246 262 261 264 105 128 146 147 136 119 98 77 50 27 14 9 2 357 351 351 349 345 346 343 339 340 340 343 343 347 347 351 355
242 230 204 240 255 279 249 238 219 218 222 232 250 279 125 158 155 144 137 124 107 92 64 39 28 19 10 5 358 357 351 349 350 349 353 347 345 345 349 347 350 352 358 0
230 225 231 238 197 232 294 360 207 224 226 228 228 205 177 140 117 117 115 116 107 85 58 40 27 20 12 5 3 358 358 358 0 357 355 353 353 357 349 354 1 4 9 5
216 229 251 243 233 250 140 165 182 196 222 217 210 162 130 139 129 100 90 90 88 77 63 50 36 21 15 8 8 10 6 3 2 357 357 359 355 2 360 360 358 4 12 12
179 191 215 232 263 277 251 171 190 206 233 190 187 161 160 167 200 127 126 111 96 79 63 53 37 32 27 29 30 15 5 5 10 1 355 360 1 357 2 4 6 356 358 4
221 242 241 234 239 262 45 145 169 207 101 154 167 160 165 171 73 124 120 106 90 79 69 61 56 50 51 49 37 40 24 10 353 352 4 10 7 3 4 8 10 10 11 1
244 219 217 233 221 236 4 199 198 358 289 153 161 154 116 117 120 124 123 114 101 90 76 71 75 80 72 52 39 26 13 359 356 359 8 12 13 12 12 14 17 15 9 14
231 226 189 208 228 290 344 313 300 22 2 186 158 134 137 131 130 132 127 116 104 92 90 87 99 97 73 50 27 12 2 360 357 8 10 7 9 13 16 17 20 19 13 15
213 190 235 214 229 231 248 302 308 105 312 183 140 137 136 132 135 130 125 123 115 108 108 111 108 91 71 44 26 8 4 3 7 9 7 7 10 9 14 20 22 24 17 15
20 171 247 255 260 197 217 215 213 186 204 146 139 136 129 134 134 135 128 124 121 125 126 116 104 86 68 34 13 5 3 7 14 15 14 10 17 17 18 30 33 35 36 34
224 255 260 273 349 150 299 173 167 160 153 145 134 126 132 134 134 132 128 129 136 138 134 126 110 84 45 21 3 2 4 6 14 12 11 17 15 19 22 23 59 50 49 43